Regional Weather Roundup
Issued by NWS

Home | Current Version | Previous Version | Graphics & Text | Print | Product List | Glossary On
Versions: 1 2 3 4 5 6 7 8 9 10 11 12 13 14 15 16 17 18 19 20 21 22 23 24 25 26 27 28 29 30 31 32 33 34 35 36 37 38 39 40 41 42 43 44 45 46 47 48 49 50
860
ASUS45 KBOI 090210
RWRID

IDAHO REGIONAL WEATHER ROUNDUP
NATIONAL WEATHER SERVICE BOISE ID
700 PM MST THU DEC 08 2016

NOTE: "FAIR" INDICATES FEW OR NO CLOUDS BELOW 12000 FEET
WITH NO SIGNIFICANT WEATHER AND/OR OBSTRUCTIONS TO VISIBILITY

IDZ012-014-090300-
SOUTHWEST IDAHO


CITY           SKY/WX    TMP DP  RH WIND       PRES   REMARKS
BOISE          LGT SNOW  26  23  88 SE12      30.07S FOG     WCI  16
CALDWELL       FLURRIES  26  22  84 SE17      30.09S WCI  13
MOUNTAIN HOME  LGT SNOW  25  24  95 SE23      30.08F FOG     WCI  10
$$

IDZ016-017-090300-
SOUTHCENTRAL IDAHO


CITY           SKY/WX    TMP DP  RH WIND       PRES   REMARKS
BURLEY         LGT SNOW  20  18  92 E10       30.06F FOG     WCI   9
JEROME         LGT SNOW  19  16  88 NE21      30.08S FOG     WCI   3
TWIN FALLS     LGT SNOW  20  18  92 NE13      30.06F FOG     WCI   7
$$

IDZ019>023-090300-
SOUTHEAST IDAHO


CITY           SKY/WX    TMP DP  RH WIND       PRES   REMARKS
IDAHO FALLS    LGT SNOW  17  13  84 N8        30.12F FOG     WCI   7
POCATELLO      LGT SNOW  20  18  92 N6        30.11F WCI  12
REXBURG        LGT SNOW  16  14  92 E6        30.12F VSB 1   WCI   7
$$

IDZ006-010-011-018-031-032-090300-
CENTRAL IDAHO MOUNTAINS


CITY           SKY/WX    TMP DP  RH WIND       PRES   REMARKS
MCCALL         LGT SNOW  13   9  84 CALM      29.94R FOG
HAILEY         LGT SNOW  19  16  86 NW7       30.07F VSB 1   WCI  10
STANLEY          N/A      3  -1  83 CALM      29.97F
SALMON         CLOUDY    12   7  79 CALM      30.12F
CHALLIS        LGT SNOW  10   8  92 CALM      30.06F FOG
$$

IDZ002-004-006-007-026-090300-
NORTHERN IDAHO


CITY           SKY/WX    TMP DP  RH WIND       PRES   REMARKS
LEWISTON       CLOUDY    22  16  78 CALM      30.12F
LOWELL           N/A     24  18  77 CALM      30.19R
COEUR D`ALENE  CLOUDY    17   7  64 N18       30.12F WCI   1
MULLAN PASS    CLOUDY     0  -3  87 VRB5      29.89F WCI -10
$$




USA.gov is the U.S. government's official web portal to all federal, state and local government web resources and services.